Location: Crescent
(42.8242°N, 73.7329°W)
Time: 17:28:01
(UTC+00:00)

Vanguard 1 Rocket - Pass Details

Date: 18 February 2026
Orbit: 653 x 4214 km, 34.3° (Epoch: 8 March)

Event Time Altitude Azimuth Distance (km) Brightness Sun altitude
Rises 18:48:59 0° 244° (WSW) 4,334 11.6 31.1°
Reaches altitude 10° 18:51:22 10° 239° (WSW) 3,667 11.6 30.9°
Maximum altitude 19:01:07 57° 164° (SSE) 2,625 10.6 30.0°
Drops below altitude 10° 19:19:56 10° 93° (E) 6,690 11.6 28.0°
Sets 19:26:10 0° 91° (E) 8,089 11.9 27.3°
